Snowfall_Accumulation
0.0 0.0 0.0 0.0 0.0 0.0 0.0 0.0 0.0 0.0 0.0 0.0 0.0 0.0 0.0 0.0 0.0 0.0 0.0 0.0 0.0 0.0 0.0 0.0 0.0 0.0 0.0 0.0 0.0 0.0 0.0 0.0 0.0 0.0 0.0 0.0 0.0 0.0 0.0 0.0 0.0 0.0 0.0 0.0
0.0 0.0 0.0 0.0 0.0 0.0 0.0 0.0 0.0 0.0 0.0 0.0 0.0 0.0 0.0 0.0 0.0 0.0 0.0 0.0 0.0 0.0 0.0 0.0 0.0 0.0 0.0 0.0 0.0 0.0 0.0 0.0 0.0 0.0 0.0 0.0 0.0 0.0 0.0 0.0 0.0 0.0 0.0 0.0
0.0 0.0 0.0 0.0 0.0 0.0 0.0 0.0 0.0 0.0 0.0 0.0 0.0 0.0 0.0 0.0 0.0 0.0 0.0 0.0 0.0 0.0 0.0 0.0 0.0 0.0 0.0 0.0 0.0 0.0 0.0 0.0 0.0 0.0 0.0 0.0 0.0 0.0 0.0 0.0 0.0 0.0 0.0 0.0
0.0 0.0 0.0 0.0 0.0 0.0 0.0 0.0 0.0 0.0 0.0 0.5 0.0 1.6 0.0 0.0 0.0 0.0 0.0 0.0 0.0 0.0 0.0 0.0 0.0 0.0 0.0 0.0 0.0 0.0 0.0 0.0 0.0 0.0 0.0 0.0 0.0 0.0 0.0 0.0 0.0 0.0 0.0 0.0
0.0 0.0 0.0 0.0 0.0 0.0 0.0 0.0 0.0 0.0 0.1 0.1 0.0 0.2 0.0 0.0 0.0 0.0 0.0 0.0 0.0 0.0 0.0 0.0 0.0 0.0 0.0 0.0 0.0 0.0 0.0 0.0 0.0 0.0 0.0 0.0 0.0 0.0 0.0 0.0 0.0 0.0 0.0 0.0
0.0 0.0 0.0 0.0 0.0 0.0 0.0 0.0 0.0 0.0 0.0 5.5 0.0 0.0 0.0 0.0 0.0 0.0 0.0 0.0 0.0 0.0 0.0 0.0 0.0 0.0 0.0 0.0 0.0 0.0 0.0 0.0 0.0 0.0 0.0 0.0 0.0 0.0 0.0 0.0 0.0 0.0 0.0 0.0
0.0 0.0 0.0 0.0 0.0 0.0 0.0 0.1 10.6 13.9 21.7 8.0 0.0 0.0 0.0 0.0 0.0 0.0 0.0 0.0 0.0 0.0 0.0 0.0 0.0 0.0 0.0 0.0 0.0 0.0 0.0 0.0 0.0 0.0 0.0 0.0 0.0 0.0 0.0 0.0 0.0 0.0 0.0 0.0
0.3 1.1 0.0 0.0 0.0 0.0 0.0 0.4 5.0 8.1 6.6 1.0 0.0 1.9 0.0 0.0 0.0 0.0 0.0 0.0 0.0 0.0 0.0 0.0 0.0 0.0 0.0 0.0 0.0 0.0 0.0 0.0 0.0 0.0 0.0 0.0 0.0 0.0 0.0 0.0 0.0 0.0 0.0 0.0
0.3 0.1 0.0 0.0 0.0 0.0 0.1 1.7 0.0 5.7 3.6 3.7 0.2 0.0 0.0 0.0 0.0 0.0 0.0 0.0 0.0 0.0 0.0 0.0 0.0 0.0 0.0 0.0 0.0 0.0 0.0 0.0 0.0 0.0 0.0 0.0 0.0 0.0 0.0 0.0 0.0 0.0 0.0 0.0
0.0 0.9 0.0 0.0 0.0 0.0 0.0 0.0 4.4 4.2 12.6 5.5 1.0 0.1 0.0 0.0 0.0 0.0 0.0 0.0 0.0 0.0 0.0 0.0 0.0 0.0 0.0 0.0 0.0 0.0 0.0 0.0 0.0 0.0 0.0 0.0 0.0 0.0 0.0 0.0 0.0 0.0 0.0 0.0
0.0 0.4 0.0 0.0 0.0 0.0 0.6 1.7 1.0 0.6 1.7 5.6 4.2 0.6 0.0 0.0 0.0 0.0 0.0 0.0 0.0 0.0 0.0 0.0 0.0 0.0 0.0 0.0 0.0 0.0 0.0 0.0 0.0 0.0 0.0 0.0 0.0 0.0 0.0 0.0 0.0 0.0 0.0 0.0
0.0 0.2 1.9 0.1 0.0 0.0 0.0 0.0 0.1 6.8 2.1 0.6 2.9 2.1 0.0 0.0 0.0 0.0 0.0 0.0 0.0 0.0 0.0 0.0 0.0 0.0 0.0 0.0 0.0 0.0 0.0 0.0 0.0 0.0 0.0 0.0 0.0 0.0 0.0 0.0 0.0 0.0 0.0 0.0
0.3 3.5 7.1 2.7 1.6 0.0 0.0 0.0 0.1 1.3 2.1 2.6 14.0 1.9 0.0 0.0 0.0 0.0 0.0 0.1 0.1 0.0 0.0 0.0 0.0 0.0 0.0 0.0 0.0 0.0 0.0 0.0 0.0 0.0 0.0 0.0 0.0 0.1 0.4 1.2 0.4 0.1 0.5 0.5
nan 1.9 4.2 1.8 0.2 0.1 0.1 0.0 0.0 5.2 11.7 4.8 2.2 3.1 0.0 0.0 0.4 0.0 0.0 0.0 0.0 0.0 0.0 0.0 0.0 0.0 0.0 0.0 0.0 0.1 0.1 0.0 0.0 0.0 0.0 0.1 0.1 0.1 0.5 1.6 3.1 2.9 1.4 0.9
0.6 6.6 1.1 0.8 0.1 0.1 0.1 0.1 0.1 2.0 2.8 9.0 1.2 4.6 3.9 3.4 6.9 2.6 0.5 0.0 0.0 0.1 0.1 0.1 0.1 0.1 0.1 0.2 0.2 1.0 0.5 0.1 0.1 0.1 1.3 3.0 1.4 1.3 2.7 4.9 5.1 4.4 2.9 2.0
0.5 6.0 1.0 3.7 0.3 0.2 0.7 0.1 0.0 0.1 1.2 0.3 0.1 0.4 0.0 0.0 0.0 1.3 1.0 0.9 0.3 1.3 1.2 1.1 0.7 0.6 0.4 1.2 1.5 2.7 3.2 1.9 0.4 1.8 5.8 4.8 5.0 4.6 5.0 7.6 6.9 5.9 5.0 4.7
2.9 5.3 8.9 13.8 0.3 0.8 13.3 0.0 0.0 0.9 0.4 2.7 3.9 1.7 0.1 1.7 1.6 3.7 1.9 2.5 2.9 3.0 2.9 1.8 2.4 2.8 0.9 2.8 1.5 5.6 5.0 2.1 4.5 5.2 7.2 8.0 8.7 7.0 7.7 7.1 7.0 6.2 5.1 3.8
6.0 5.1 5.1 18.7 6.4 40.8 1.1 0.0 0.0 0.1 0.1 0.2 0.5 0.8 0.0 6.2 0.7 1.1 1.6 2.6 3.0 4.1 4.2 3.7 2.4 2.9 2.4 2.0 3.0 4.0 4.2 5.2 7.1 6.9 7.8 7.5 8.2 7.2 6.4 6.7 6.5 6.3 4.0 4.6
1.4 2.4 26.1 40.3 19.3 0.3 0.0 0.0 0.0 0.3 0.2 0.0 0.0 0.0 0.0 0.1 0.0 0.0 1.0 2.7 4.7 4.9 5.0 4.6 4.2 4.8 4.7 5.9 5.3 6.0 7.5 9.1 7.4 8.3 7.8 7.7 6.5 8.1 7.5 7.5 7.5 4.6 2.7 1.6
1.2 1.9 9.0 32.5 30.5 24.0 0.0 0.0 0.0 0.0 0.7 0.0 0.0 0.0 0.0 0.0 0.2 0.8 3.7 2.9 4.5 5.9 7.2 8.9 7.7 8.4 6.2 6.6 4.8 4.1 6.2 6.1 7.3 6.4 6.7 6.4 5.9 5.5 7.0 4.6 5.8 5.4 2.5 2.8
17.5 24.8 39.3 25.5 29.0 10.0 0.0 0.0 0.0 3.9 0.5 0.0 0.0 0.0 0.0 0.4 1.3 1.8 3.0 2.2 3.1 5.0 6.7 6.4 5.7 5.9 6.8 8.1 3.6 4.3 4.1 4.3 3.6 3.1 3.8 4.4 3.6 3.6 2.9 2.1 1.6 2.0 2.4 2.4
6.2 16.4 30.2 22.9 30.0 33.3 0.0 0.2 1.8 0.9 0.1 0.2 0.0 0.0 0.1 0.0 0.0 0.9 0.9 1.9 2.2 3.3 4.6 4.8 2.7 4.1 7.7 6.7 1.3 2.5 1.3 3.3 2.6 1.4 1.6 2.1 2.2 1.4 1.3 1.2 0.6 1.6 0.9 0.8
7.9 5.0 5.9 5.6 4.8 0.5 0.2 2.1 1.6 2.3 1.0 0.3 0.1 0.0 0.1 0.1 0.0 0.0 0.1 0.1 0.1 0.2 0.4 1.4 0.5 0.3 1.1 1.8 0.1 0.1 2.1 1.6 1.8 1.7 3.0 2.6 2.1 1.5 1.2 1.0 0.5 1.5 0.3 1.2
1.4 2.0 3.1 2.7 0.8 0.5 1.1 1.2 1.1 0.8 0.9 0.5 0.3 0.3 0.2 0.2 0.0 0.0 0.0 0.1 0.1 0.1 0.4 0.9 0.9 0.6 0.4 0.4 0.5 0.5 0.8 0.8 3.5 3.5 2.1 1.2 1.3 0.7 0.8 1.2 1.3 1.9 2.0 2.1
0.6 0.8 1.8 1.3 0.1 0.3 0.6 0.4 0.5 0.2 0.3 0.4 0.6 1.0 0.5 0.3 0.0 0.1 0.2 0.2 0.1 0.3 0.6 1.1 1.3 0.8 0.7 0.6 0.7 1.5 1.3 1.6 2.7 3.1 1.4 1.0 1.8 2.0 1.3 1.2 1.7 1.5 0.5 1.7
0.3 0.2 0.8 0.6 0.1 0.4 0.2 0.2 0.2 0.3 0.4 0.3 0.5 1.6 0.2 0.6 0.6 0.8 0.6 0.5 0.7 1.2 1.6 1.8 2.0 1.6 1.5 2.0 2.3 3.0 3.6 3.7 4.3 2.3 3.1 2.7 2.7 2.3 2.0 2.1 2.2 nan nan nan
Water_Equivalent
0.00 0.00 0.00 0.00 0.00 0.00 0.00 0.00 0.00 0.00 0.00 0.00 0.00 0.00 0.00 0.00 0.00 0.00 0.00 0.00 0.00 0.00 0.00 0.00 0.00 0.00 0.00 0.00 0.00 0.00 0.00 0.00 0.00 0.00 0.00 0.00 0.00 0.00 0.00 0.00 0.00 0.00 0.00 0.00
0.00 0.00 0.00 0.00 0.00 0.00 0.00 0.00 0.00 0.00 0.00 0.00 0.00 0.00 0.00 0.00 0.00 0.00 0.00 0.00 0.00 0.00 0.00 0.00 0.00 0.00 0.00 0.00 0.00 0.00 0.00 0.00 0.00 0.00 0.00 0.00 0.00 0.00 0.00 0.00 0.00 0.00 0.00 0.00
0.01 0.00 0.00 0.00 0.00 0.00 0.00 0.00 0.00 0.00 0.00 0.00 0.00 0.00 0.00 0.00 0.00 0.00 0.00 0.00 0.00 0.00 0.00 0.00 0.00 0.00 0.00 0.00 0.00 0.00 0.00 0.00 0.00 0.00 0.00 0.00 0.00 0.00 0.00 0.00 0.00 0.00 0.00 0.00
0.00 0.00 0.00 0.00 0.00 0.00 0.00 0.00 0.00 0.00 0.01 0.16 0.00 0.42 0.00 0.00 0.00 0.00 0.00 0.00 0.00 0.00 0.00 0.00 0.00 0.00 0.00 0.00 0.00 0.00 0.00 0.00 0.00 0.00 0.00 0.00 0.00 0.00 0.00 0.00 0.00 0.00 0.00 0.00
0.00 0.00 0.00 0.00 0.00 0.00 0.01 0.00 0.00 0.00 0.04 0.02 0.00 0.06 0.00 0.00 0.00 0.00 0.00 0.00 0.00 0.00 0.00 0.00 0.00 0.00 0.00 0.00 0.00 0.00 0.00 0.00 0.00 0.00 0.00 0.00 0.00 0.00 0.00 0.00 0.00 0.00 0.00 0.00
0.00 0.00 0.00 0.00 0.00 0.00 0.00 0.00 0.00 0.00 0.00 1.30 0.00 0.00 0.00 0.00 0.00 0.00 0.00 0.00 0.00 0.00 0.00 0.00 0.00 0.00 0.00 0.00 0.00 0.00 0.00 0.00 0.00 0.00 0.00 0.00 0.00 0.00 0.00 0.00 0.00 0.00 0.00 0.00
0.00 0.00 0.00 0.00 0.00 0.00 0.00 0.02 2.50 3.35 4.45 1.72 0.00 0.00 0.00 0.00 0.00 0.00 0.00 0.00 0.00 0.00 0.00 0.00 0.00 0.00 0.00 0.00 0.00 0.00 0.00 0.00 0.00 0.00 0.00 0.00 0.00 0.00 0.00 0.00 0.00 0.00 0.00 0.00
0.10 0.33 0.00 0.00 0.00 0.01 0.00 0.11 1.09 1.32 1.07 0.26 0.00 0.43 0.00 0.00 0.00 0.00 0.00 0.00 0.00 0.00 0.00 0.00 0.00 0.00 0.00 0.00 0.00 0.00 0.00 0.00 0.00 0.00 0.00 0.00 0.00 0.00 0.00 0.00 0.00 0.00 0.00 0.00
0.09 0.04 0.00 0.00 0.00 0.00 0.04 0.51 0.00 1.08 0.64 0.67 0.06 0.00 0.00 0.00 0.00 0.00 0.00 0.00 0.00 0.00 0.00 0.00 0.00 0.00 0.00 0.00 0.00 0.00 0.00 0.00 0.00 0.00 0.00 0.00 0.00 0.00 0.00 0.00 0.00 0.00 0.00 0.00
0.01 0.18 0.00 0.00 0.00 0.00 0.01 0.00 0.74 1.10 1.94 0.81 0.24 0.02 0.00 0.00 0.00 0.00 0.00 0.00 0.00 0.00 0.00 0.00 0.00 0.00 0.00 0.00 0.00 0.00 0.00 0.00 0.00 0.00 0.00 0.00 0.00 0.00 0.00 0.00 0.00 0.00 0.00 0.00
0.00 0.08 0.01 0.00 0.02 0.02 0.19 0.54 0.30 0.15 0.42 0.99 0.69 0.15 0.00 0.00 0.00 0.00 0.00 0.00 0.00 0.00 0.00 0.00 0.00 0.00 0.00 0.00 0.00 0.00 0.00 0.00 0.00 0.00 0.00 0.00 0.00 0.00 0.00 0.00 0.00 0.00 0.00 0.00
0.00 0.06 0.45 0.02 0.00 0.00 0.00 0.01 0.03 1.17 0.35 0.17 0.54 0.28 0.00 0.00 0.00 0.00 0.00 0.00 0.00 0.00 0.00 0.00 0.00 0.00 0.00 0.00 0.00 0.00 0.00 0.00 0.00 0.00 0.00 0.00 0.00 0.00 0.00 0.00 0.00 0.00 0.01 0.00
0.12 0.86 1.45 0.58 0.34 0.00 0.00 0.00 0.02 0.23 0.46 0.36 2.00 0.34 0.00 0.00 0.00 0.00 0.01 0.01 0.01 0.01 0.00 0.00 0.00 0.00 0.00 0.00 0.00 0.00 0.00 0.00 0.00 0.00 0.00 0.00 0.01 0.02 0.14 0.42 0.15 0.03 0.20 0.20
nan 0.41 0.68 0.30 0.03 0.03 0.02 0.00 0.00 0.78 1.88 0.81 0.40 0.56 0.00 0.01 0.11 0.00 0.00 0.00 0.00 0.00 0.00 0.01 0.00 0.01 0.00 0.01 0.01 0.01 0.01 0.00 0.00 0.00 0.01 0.02 0.04 0.04 0.18 0.60 1.18 1.12 0.54 0.36
0.11 1.29 0.21 0.16 0.02 0.02 0.02 0.03 0.03 0.28 0.44 1.29 0.24 0.66 0.74 0.76 1.59 0.73 0.13 0.01 0.01 0.02 0.01 0.03 0.03 0.03 0.03 0.06 0.07 0.30 0.14 0.03 0.02 0.03 0.42 0.93 0.47 0.43 0.86 1.47 1.54 1.37 1.04 0.75
0.09 1.31 0.15 0.64 0.07 0.05 0.10 0.01 0.01 0.02 0.24 0.06 0.02 0.07 0.00 0.00 0.00 0.35 0.29 0.26 0.09 0.30 0.29 0.26 0.18 0.17 0.11 0.31 0.41 0.74 0.91 0.56 0.12 0.54 1.42 1.34 1.48 1.37 1.33 1.86 1.47 1.30 1.10 1.28
0.46 0.92 2.17 3.09 0.05 0.12 2.29 0.00 0.00 0.16 0.08 0.42 0.54 0.29 0.02 0.33 0.36 0.93 0.45 0.58 0.67 0.72 0.68 0.46 0.59 0.76 0.26 0.65 0.38 1.27 1.19 0.59 1.14 1.28 1.97 2.19 2.21 1.53 1.62 1.53 1.52 1.24 1.01 0.97
0.99 1.17 1.22 4.07 1.60 6.79 0.23 0.00 0.00 0.02 0.02 0.06 0.11 0.16 0.01 1.30 0.19 0.32 0.40 0.60 0.68 0.80 0.91 0.81 0.59 0.81 0.68 0.57 0.77 1.02 1.14 1.38 1.71 1.63 1.80 1.74 1.88 1.48 1.35 1.31 1.23 1.41 0.95 1.16
0.22 0.42 4.65 7.23 3.39 0.07 0.00 0.00 0.00 0.06 0.04 0.00 0.01 0.00 0.00 0.02 0.00 0.01 0.27 0.71 1.03 1.10 1.18 1.09 1.04 1.20 1.25 1.46 1.27 1.34 1.56 2.00 1.68 1.77 1.64 1.63 1.38 1.63 1.36 1.26 1.37 0.95 0.53 0.34
0.18 0.27 1.46 6.25 5.32 3.72 0.00 0.00 0.00 0.00 0.14 0.00 0.00 0.00 0.00 0.00 0.04 0.22 0.80 0.65 0.84 1.09 1.31 1.64 1.57 1.81 1.26 1.34 0.93 0.71 1.04 1.03 1.29 1.22 1.32 1.29 1.19 1.13 1.12 0.78 0.93 1.11 0.55 0.58
3.09 4.92 7.21 4.97 5.31 1.98 0.00 0.00 0.00 0.61 0.07 0.00 0.00 0.00 0.00 0.07 0.35 0.45 0.66 0.50 0.70 0.95 1.15 1.14 0.96 0.95 1.16 1.44 0.64 0.69 0.65 0.66 0.64 0.55 0.68 0.79 0.67 0.68 0.55 0.40 0.30 0.34 0.39 0.42
0.87 2.71 5.50 4.05 4.94 4.92 0.01 0.03 0.17 0.12 0.01 0.03 0.00 0.00 0.01 0.00 0.01 0.20 0.20 0.37 0.42 0.56 0.75 0.80 0.41 0.58 1.09 1.09 0.20 0.37 0.20 0.55 0.43 0.24 0.27 0.34 0.38 0.25 0.25 0.24 0.12 0.27 0.15 0.14
1.00 0.59 0.78 0.60 0.69 0.08 0.04 0.29 0.27 0.34 0.15 0.05 0.02 0.00 0.01 0.01 0.00 0.01 0.02 0.02 0.03 0.05 0.08 0.24 0.08 0.05 0.15 0.24 0.03 0.01 0.30 0.25 0.29 0.30 0.59 0.50 0.38 0.29 0.23 0.23 0.10 0.39 0.07 0.30
0.16 0.24 0.38 0.29 0.10 0.06 0.14 0.20 0.18 0.14 0.14 0.09 0.05 0.05 0.02 0.02 0.00 0.00 0.00 0.01 0.01 0.03 0.07 0.16 0.14 0.10 0.07 0.07 0.08 0.09 0.13 0.14 0.75 0.73 0.34 0.19 0.24 0.16 0.15 0.34 0.36 0.54 0.49 0.44
0.11 0.12 0.29 0.24 0.01 0.05 0.09 0.07 0.08 0.04 0.05 0.06 0.09 0.14 0.06 0.03 0.00 0.01 0.03 0.03 0.02 0.06 0.10 0.17 0.19 0.12 0.10 0.09 0.10 0.24 0.20 0.27 0.44 0.50 0.18 0.18 0.35 0.39 0.23 0.24 0.42 0.36 0.12 0.41
0.06 0.03 0.13 0.12 0.01 0.05 0.02 0.03 0.02 0.04 0.04 0.03 0.07 0.22 0.04 0.07 0.08 0.14 0.11 0.09 0.13 0.17 0.21 0.22 0.23 0.18 0.17 0.23 0.27 0.37 0.53 0.55 0.61 0.28 0.46 0.45 0.47 0.41 0.35 0.37 0.41 nan nan nan
SL_Ratio
nan nan nan nan nan nan nan nan nan nan nan nan nan nan nan nan nan nan nan nan nan nan nan nan nan nan nan nan nan nan nan nan nan nan nan nan nan nan nan nan nan nan nan nan
nan nan nan nan nan nan nan nan 2.9 nan nan nan nan nan nan nan nan nan nan nan nan nan nan nan nan nan nan nan nan nan nan nan nan nan nan nan nan nan nan nan nan nan nan nan
2.5 nan nan nan nan nan nan nan nan nan nan nan nan nan nan nan nan nan nan nan nan nan nan nan nan nan nan nan nan nan nan nan nan nan nan nan nan nan nan nan nan nan nan nan
nan nan nan nan nan nan nan nan nan nan 3.0 3.1 nan 3.8 nan nan nan nan nan nan nan nan nan nan nan nan nan nan nan nan nan nan nan nan nan nan nan nan nan nan nan nan nan nan
nan nan nan nan nan nan 2.8 nan nan nan 2.7 3.3 nan 3.3 nan nan nan nan nan nan nan nan nan nan nan nan nan nan nan nan nan nan nan nan nan nan nan nan nan nan nan nan nan nan
nan nan nan nan nan nan nan nan nan 2.5 5.0 4.3 nan nan nan nan nan nan nan nan nan nan nan nan nan nan nan nan nan nan nan nan nan nan nan nan nan nan nan nan nan nan nan nan
nan nan nan nan nan nan nan 2.9 4.2 4.2 4.9 4.7 nan nan nan nan nan nan nan nan nan nan nan nan nan nan nan nan nan nan nan nan nan nan nan nan nan nan nan nan nan nan nan nan
2.9 3.4 nan nan nan 3.1 nan 3.2 4.6 6.2 6.2 3.9 nan 4.4 nan nan nan nan nan nan nan nan nan nan nan nan nan nan nan nan nan nan nan nan nan nan nan nan nan nan nan nan nan nan
3.5 3.0 nan nan nan nan 3.5 3.4 nan 5.3 5.6 5.6 2.7 5.0 nan nan nan nan nan nan nan nan nan nan nan nan nan nan nan nan nan nan nan nan nan nan nan nan nan nan nan nan nan nan
3.8 5.2 nan nan nan nan 3.2 nan 5.9 3.9 6.5 6.9 4.1 3.5 5.0 nan nan nan nan nan nan nan nan nan nan nan nan nan nan nan nan nan nan nan nan nan nan nan nan nan nan nan nan nan
2.5 4.9 3.5 5.0 2.5 2.9 3.0 3.2 3.5 3.9 4.2 5.7 6.1 4.0 nan nan nan nan nan nan nan nan nan nan nan nan nan nan nan nan nan nan nan nan nan nan nan nan nan nan nan nan nan nan
nan 3.8 4.3 3.3 nan nan 5.0 3.2 3.6 5.8 5.9 3.9 5.5 7.6 nan nan nan nan nan nan nan nan nan nan nan nan nan nan nan nan nan nan nan nan nan nan nan nan nan 2.5 3.8 nan 2.5 nan
2.8 4.0 4.9 4.7 4.7 2.5 5.0 nan 5.2 5.6 4.5 7.2 7.0 5.7 nan nan nan nan 4.0 4.5 4.3 3.8 5.0 nan 5.0 3.8 5.0 5.0 4.0 3.8 nan nan nan nan nan 5.0 2.7 2.6 2.8 2.8 2.7 2.5 2.5 2.5
nan 4.7 6.2 5.8 6.0 4.7 4.3 nan nan 6.7 6.2 5.9 5.6 5.6 2.5 3.2 3.8 nan nan nan 3.3 nan 4.3 3.9 5.0 3.9 2.9 3.2 3.3 3.8 4.6 4.3 3.8 2.5 2.7 2.9 2.8 2.8 2.8 2.7 2.7 2.6 2.5 2.5
5.7 5.1 5.2 4.9 3.6 3.7 4.5 5.0 4.4 7.1 6.3 7.0 5.1 7.0 5.4 4.5 4.3 3.6 3.5 2.9 3.6 3.6 3.9 3.9 3.9 3.9 3.7 3.4 3.2 3.4 3.3 2.9 2.8 2.8 3.1 3.3 3.0 3.0 3.2 3.3 3.3 3.2 2.8 2.7
5.5 4.6 6.7 5.9 5.0 5.2 6.8 3.8 4.2 4.5 5.0 5.2 4.9 5.7 nan nan nan 3.7 3.4 3.7 3.8 4.2 4.1 4.0 3.7 3.6 3.6 3.9 3.8 3.7 3.5 3.5 3.5 3.3 4.1 3.6 3.4 3.3 3.7 4.1 4.7 4.5 4.5 3.7
6.4 5.7 4.1 4.5 5.7 7.2 5.8 8.3 4.3 5.6 4.7 6.4 7.1 6.0 3.2 5.0 4.4 4.0 4.2 4.3 4.4 4.2 4.3 4.0 4.0 3.7 3.7 4.2 3.9 4.4 4.2 3.6 3.9 4.1 3.7 3.7 3.9 4.6 4.7 4.6 4.6 5.0 5.1 3.9
6.1 4.4 4.2 4.6 4.0 6.0 4.8 nan nan 4.6 4.0 4.0 4.6 4.9 3.6 4.8 3.7 3.6 3.9 4.4 4.4 5.2 4.6 4.6 4.1 3.6 3.6 3.5 3.9 3.9 3.7 3.8 4.1 4.2 4.3 4.3 4.3 4.9 4.7 5.1 5.3 4.5 4.2 3.9
6.1 5.7 5.6 5.6 5.7 4.3 nan nan 5.0 5.3 5.5 nan 5.0 nan nan 3.3 nan 3.0 3.6 3.9 4.5 4.4 4.3 4.3 4.0 4.0 3.7 4.0 4.2 4.5 4.8 4.6 4.4 4.7 4.7 4.7 4.7 5.0 5.5 6.0 5.5 4.9 5.0 4.9
6.7 6.9 6.1 5.2 5.7 6.4 nan nan nan nan 5.4 nan 5.8 nan nan nan 5.4 3.4 4.6 4.4 5.4 5.4 5.5 5.4 4.9 4.7 4.9 4.9 5.1 5.7 6.0 5.9 5.7 5.3 5.1 4.9 4.9 4.9 6.2 6.0 6.2 4.9 4.5 4.7
5.7 5.1 5.5 5.1 5.5 5.1 5.0 5.0 nan 6.4 7.2 5.0 nan nan 5.0 5.4 3.7 3.9 4.5 4.5 4.5 5.3 5.8 5.6 5.9 6.2 5.9 5.6 5.7 6.2 6.3 6.5 5.6 5.6 5.5 5.5 5.4 5.3 5.3 5.3 5.1 5.8 6.0 5.7
7.2 6.0 5.5 5.7 6.1 6.8 5.0 5.5 10.5 7.7 5.2 5.5 5.0 5.0 5.7 nan 3.1 4.7 4.7 5.3 5.2 5.9 6.1 6.0 6.6 7.1 7.1 6.2 6.3 6.8 6.8 6.1 6.0 6.0 6.0 6.1 5.7 5.7 5.1 4.9 5.4 5.8 6.1 6.1
7.9 8.5 7.6 9.4 7.0 6.4 6.1 7.3 6.0 6.6 6.7 5.9 5.8 nan 5.3 6.2 nan 5.0 4.8 4.2 4.1 4.6 5.2 5.9 6.1 6.1 7.4 7.6 4.0 4.8 6.9 6.5 6.3 5.5 5.1 5.2 5.6 5.1 5.3 4.3 4.6 3.7 3.8 4.0
9.0 8.2 8.1 9.1 7.7 7.9 7.9 6.1 6.0 5.8 6.2 6.0 5.8 6.3 6.9 7.9 nan 10.0 7.9 5.7 5.0 4.7 5.3 5.6 6.3 6.5 5.9 5.7 6.1 5.8 6.3 5.9 4.7 4.8 6.0 6.3 5.6 4.6 5.2 3.7 3.5 3.6 4.2 4.7
5.6 6.8 6.3 5.3 7.1 6.6 6.5 5.9 5.8 6.2 6.9 6.8 6.6 7.3 7.9 8.9 9.3 6.8 5.3 4.7 4.7 5.4 6.5 6.8 7.0 6.9 6.9 6.7 6.9 6.5 6.7 6.1 6.0 6.2 7.4 5.7 5.1 5.1 5.4 5.1 4.0 4.3 4.0 4.2
4.7 6.9 6.4 5.0 7.9 7.4 7.1 8.1 7.4 8.3 10.5 9.6 7.3 7.1 6.5 7.9 7.3 5.9 5.3 5.6 5.9 7.1 7.6 8.2 8.8 9.1 9.2 8.9 8.7 8.0 6.9 6.6 7.1 8.2 6.8 5.9 5.7 5.7 5.7 5.6 5.3 nan nan nan